WGN8340 ESGG-EBOS

Flight info

Callsign WGN8340
Flight time 1h 26m
Altitude 36000
Route VADIN M852 ALS N872 EEL DCT GISEB DCT NIK L610 DENUT
Aircraft MD11/H-SDE1E2E3FGHIJ2J3J4J5M1RWXY/LB1D1

Departure

Time 2026-05-05 18:38
Airport Göteborg Landvetter Airport (ESGG)

Arrival

Time 2026-05-05 20:05
Airport Ostend-Bruges International Airport (EBOS)
Time Latitude Longitude Altitude Speed Heading
2026-05-05 18:05 57.67276 12.29752 539 ft 0 kts 116°
2026-05-05 18:28 57.67293 12.29690 545 ft 4 kts 107°
2026-05-05 18:28 57.67296 12.29654 548 ft 4 kts 62°
2026-05-05 18:28 57.67282 12.29626 551 ft 4 kts 25°
2026-05-05 18:29 57.67267 12.29613 542 ft 0 kts 27°
2026-05-05 18:34 57.67272 12.29618 544 ft 3 kts 27°
2026-05-05 18:34 57.67299 12.29644 546 ft 6 kts 27°
2026-05-05 18:34 57.67346 12.29669 540 ft 6 kts 348°
2026-05-05 18:35 57.67373 12.29601 540 ft 8 kts 298°
2026-05-05 18:35 57.67403 12.29494 540 ft 9 kts 297°
2026-05-05 18:35 57.67429 12.29396 540 ft 8 kts 297°
2026-05-05 18:35 57.67452 12.29314 540 ft 7 kts 296°
2026-05-05 18:36 57.67457 12.29287 540 ft 0 kts 285°
2026-05-05 18:36 57.67457 12.29285 540 ft 1 kts 284°
2026-05-05 18:37 57.67459 12.29238 539 ft 6 kts 272°
2026-05-05 18:37 57.67455 12.29122 538 ft 11 kts 269°
2026-05-05 18:37 57.67420 12.29013 538 ft 9 kts 208°
2026-05-05 18:37 57.67331 12.28932 537 ft 32 kts 206°
2026-05-05 18:38 57.66869 12.28513 539 ft 114 kts 206°
2026-05-05 18:38 57.65948 12.27679 550 ft 173 kts 206°
2026-05-05 18:38 57.64879 12.26761 1444 ft 163 kts 207°
2026-05-05 18:38 57.63823 12.25818 2227 ft 170 kts 209°
2026-05-05 18:39 57.62722 12.24801 2970 ft 178 kts 208°
2026-05-05 18:39 57.61578 12.23851 3738 ft 187 kts 200°
2026-05-05 18:39 57.60203 12.23332 4207 ft 215 kts 189°
2026-05-05 18:39 57.58584 12.23044 4353 ft 250 kts 187°
2026-05-05 18:40 57.56789 12.22784 5001 ft 261 kts 187°
2026-05-05 18:40 57.54966 12.22477 6030 ft 264 kts 189°
2026-05-05 18:40 57.53125 12.22106 6965 ft 268 kts 190°
2026-05-05 18:40 57.51257 12.21715 7882 ft 272 kts 191°
2026-05-05 18:41 57.49363 12.21314 8785 ft 276 kts 191°
2026-05-05 18:41 57.47447 12.20911 9696 ft 279 kts 191°
2026-05-05 18:41 57.45488 12.20441 10236 ft 294 kts 196°
2026-05-05 18:41 57.43488 12.19215 10368 ft 314 kts 213°
2026-05-05 18:42 57.41676 12.16759 10612 ft 332 kts 226°
2026-05-05 18:42 57.40031 12.13741 11459 ft 333 kts 230°
2026-05-05 18:42 57.38427 12.10622 12405 ft 334 kts 230°
2026-05-05 18:42 57.36829 12.07502 13297 ft 335 kts 230°
2026-05-05 18:43 57.35213 12.04376 14158 ft 337 kts 230°
2026-05-05 18:43 57.33570 12.01228 14768 ft 342 kts 230°
2026-05-05 18:43 57.31900 11.98054 15462 ft 346 kts 230°
2026-05-05 18:43 57.30208 11.94857 16128 ft 349 kts 230°
2026-05-05 18:44 57.28500 11.91643 16803 ft 352 kts 230°
2026-05-05 18:44 57.26774 11.88404 17471 ft 355 kts 230°
2026-05-05 18:44 57.25035 11.85148 18139 ft 357 kts 230°
2026-05-05 18:44 57.23282 11.81872 18701 ft 360 kts 230°
2026-05-05 18:45 57.21514 11.78572 19237 ft 363 kts 230°
2026-05-05 18:45 57.19731 11.75250 19762 ft 366 kts 230°
2026-05-05 18:45 57.17936 11.71911 20267 ft 368 kts 230°
2026-05-05 18:45 57.16125 11.68547 20798 ft 371 kts 229°
2026-05-05 18:46 57.14208 11.65318 21266 ft 378 kts 221°
2026-05-05 18:46 57.11924 11.62805 21789 ft 387 kts 212°
2026-05-05 18:46 57.09454 11.60730 22221 ft 394 kts 208°
2026-05-05 18:46 57.06905 11.58800 22746 ft 398 kts 207°
2026-05-05 18:47 57.04356 11.56909 23281 ft 401 kts 207°
2026-05-05 18:47 57.01788 11.54983 23779 ft 404 kts 208°
2026-05-05 18:47 56.99185 11.53002 24263 ft 406 kts 208°
2026-05-05 18:47 56.96569 11.50985 24761 ft 408 kts 208°
2026-05-05 18:48 56.93945 11.48949 25256 ft 411 kts 208°
2026-05-05 18:48 56.91301 11.46890 25751 ft 414 kts 208°
2026-05-05 18:48 56.88645 11.44821 26257 ft 416 kts 208°
2026-05-05 18:48 56.85976 11.42742 26730 ft 419 kts 208°
2026-05-05 18:49 56.83287 11.40651 27157 ft 422 kts 208°
2026-05-05 18:49 56.80576 11.38547 27631 ft 425 kts 208°
2026-05-05 18:49 56.77845 11.36432 28094 ft 428 kts 208°
2026-05-05 18:49 56.75095 11.34305 28555 ft 430 kts 208°
2026-05-05 18:50 56.72329 11.32170 29016 ft 433 kts 208°
2026-05-05 18:50 56.69545 11.30024 29467 ft 436 kts 208°
2026-05-05 18:50 56.66745 11.27870 29892 ft 439 kts 208°
2026-05-05 18:50 56.63923 11.25702 30245 ft 441 kts 208°
2026-05-05 18:51 56.61087 11.23527 30575 ft 444 kts 208°
2026-05-05 18:51 56.58240 11.21347 30889 ft 444 kts 208°
2026-05-05 18:51 56.55388 11.19170 31311 ft 444 kts 208°
2026-05-05 18:51 56.52548 11.17005 31726 ft 443 kts 208°
2026-05-05 18:52 56.49711 11.14846 32125 ft 442 kts 208°
2026-05-05 18:52 56.46881 11.12694 32516 ft 441 kts 208°
2026-05-05 18:52 56.44055 11.10548 32904 ft 440 kts 208°
2026-05-05 18:52 56.41232 11.08409 33288 ft 439 kts 208°
2026-05-05 18:53 56.38420 11.06279 33650 ft 438 kts 208°
2026-05-05 18:53 56.35605 11.04166 34006 ft 438 kts 208°
2026-05-05 18:53 56.32787 11.02061 34181 ft 439 kts 207°
2026-05-05 18:53 56.29966 10.99955 34409 ft 440 kts 207°
2026-05-05 18:54 56.27135 10.97839 34658 ft 440 kts 207°
2026-05-05 18:54 56.24345 10.95755 34896 ft 440 kts 207°
2026-05-05 18:54 56.21521 10.93647 35128 ft 440 kts 207°
2026-05-05 18:54 56.18695 10.91538 35363 ft 440 kts 207°
2026-05-05 18:55 56.15864 10.89427 35594 ft 440 kts 207°
2026-05-05 18:55 56.13038 10.87324 35828 ft 440 kts 207°
2026-05-05 18:55 56.07361 10.83103 35931 ft 443 kts 206°
2026-05-05 18:56 56.01658 10.78873 35957 ft 444 kts 206°
2026-05-05 18:56 55.95946 10.74651 35954 ft 444 kts 206°
2026-05-05 18:57 55.90231 10.70438 35938 ft 444 kts 206°
2026-05-05 18:57 55.84520 10.66241 35931 ft 444 kts 206°
2026-05-05 18:58 55.78798 10.62049 35937 ft 445 kts 206°
2026-05-05 18:58 55.73065 10.57863 35939 ft 445 kts 206°
2026-05-05 18:59 55.67339 10.53696 35944 ft 445 kts 206°
2026-05-05 18:59 55.61656 10.49573 35940 ft 445 kts 206°
2026-05-05 19:00 55.55922 10.45425 35941 ft 445 kts 206°
2026-05-05 19:00 55.50190 10.41293 35936 ft 445 kts 206°
2026-05-05 19:01 55.44456 10.37172 35938 ft 445 kts 206°
2026-05-05 19:01 55.38720 10.33064 35939 ft 445 kts 205°
2026-05-05 19:02 55.33001 10.29019 35919 ft 444 kts 206°
2026-05-05 19:02 55.27280 10.24974 35934 ft 442 kts 206°
2026-05-05 19:03 55.21578 10.20933 35929 ft 442 kts 206°
2026-05-05 19:03 55.15908 10.16921 35933 ft 442 kts 206°
2026-05-05 19:04 55.10219 10.12701 35909 ft 439 kts 212°
2026-05-05 19:04 55.05564 10.06273 35930 ft 426 kts 232°
2026-05-05 19:05 55.02112 9.97911 35937 ft 425 kts 234°
2026-05-05 19:05 54.98090 9.90330 35937 ft 428 kts 226°
2026-05-05 19:06 54.93788 9.83163 35947 ft 429 kts 226°
2026-05-05 19:06 54.89533 9.75840 35937 ft 431 kts 227°
2026-05-05 19:07 54.86036 9.69691 35921 ft 428 kts 227°
2026-05-05 19:07 54.81176 9.61107 35923 ft 426 kts 227°
2026-05-05 19:08 54.77026 9.53795 35909 ft 426 kts 227°
2026-05-05 19:08 54.72862 9.46486 35910 ft 426 kts 227°
2026-05-05 19:09 54.68697 9.39199 35911 ft 426 kts 227°
2026-05-05 19:09 54.64527 9.31927 35885 ft 426 kts 227°
2026-05-05 19:10 54.61063 9.25904 35914 ft 425 kts 227°
2026-05-05 19:10 54.56893 9.18671 35910 ft 425 kts 227°
2026-05-05 19:11 54.52717 9.11451 35917 ft 426 kts 227°
2026-05-05 19:11 54.48532 9.04240 35919 ft 426 kts 227°
2026-05-05 19:12 54.44338 8.97047 35925 ft 426 kts 226°
2026-05-05 19:12 54.40115 8.89907 35910 ft 427 kts 226°
2026-05-05 19:13 54.35884 8.82734 35914 ft 427 kts 226°
2026-05-05 19:13 54.31663 8.75559 35921 ft 427 kts 226°
2026-05-05 19:14 54.27437 8.68387 35921 ft 427 kts 226°
2026-05-05 19:14 54.23211 8.61236 35920 ft 427 kts 226°
2026-05-05 19:15 54.18978 8.54095 35898 ft 427 kts 226°
2026-05-05 19:15 54.14734 8.46959 35927 ft 429 kts 225°
2026-05-05 19:16 54.10477 8.39821 35921 ft 429 kts 225°
2026-05-05 19:16 54.06219 8.32704 35922 ft 429 kts 225°
2026-05-05 19:17 54.01973 8.25629 35917 ft 429 kts 225°
2026-05-05 19:17 53.97710 8.18546 35917 ft 429 kts 225°
2026-05-05 19:18 53.93443 8.11478 35915 ft 431 kts 225°
2026-05-05 19:18 53.89147 8.04385 35916 ft 431 kts 225°
2026-05-05 19:19 53.84843 7.97314 35915 ft 431 kts 224°
2026-05-05 19:19 53.80515 7.90299 35915 ft 431 kts 224°
2026-05-05 19:20 53.76191 7.83271 35921 ft 431 kts 224°
2026-05-05 19:20 53.71871 7.76232 35908 ft 432 kts 224°
2026-05-05 19:21 53.67536 7.69180 35908 ft 433 kts 224°
2026-05-05 19:21 53.63226 7.62191 35910 ft 433 kts 224°
2026-05-05 19:22 53.58881 7.55165 35908 ft 433 kts 224°
2026-05-05 19:22 53.54534 7.48159 35906 ft 433 kts 224°
2026-05-05 19:23 53.50185 7.41169 35901 ft 433 kts 223°
2026-05-05 19:23 53.45830 7.34191 35908 ft 433 kts 223°
2026-05-05 19:24 53.41465 7.27218 35911 ft 433 kts 223°
2026-05-05 19:24 53.37091 7.20253 35921 ft 434 kts 223°
2026-05-05 19:25 53.32706 7.13290 35908 ft 435 kts 223°
2026-05-05 19:25 53.28305 7.06322 35915 ft 435 kts 223°
2026-05-05 19:26 53.23891 6.99385 35902 ft 435 kts 223°
2026-05-05 19:26 53.19467 6.92503 35904 ft 436 kts 223°
2026-05-05 19:27 53.15038 6.85587 35905 ft 435 kts 223°
2026-05-05 19:27 53.10624 6.78687 35908 ft 435 kts 223°
2026-05-05 19:28 53.06209 6.71799 35896 ft 435 kts 223°
2026-05-05 19:28 53.01781 6.64911 35910 ft 436 kts 222°
2026-05-05 19:29 52.97340 6.58025 35911 ft 438 kts 222°
2026-05-05 19:29 52.92910 6.51177 35902 ft 438 kts 222°
2026-05-05 19:30 52.88448 6.44299 35908 ft 438 kts 222°
2026-05-05 19:30 52.83976 6.37425 35903 ft 438 kts 222°
2026-05-05 19:31 52.79501 6.30569 35906 ft 439 kts 221°
2026-05-05 19:31 52.75012 6.23709 35906 ft 439 kts 221°
2026-05-05 19:32 52.70534 6.16888 35900 ft 440 kts 221°
2026-05-05 19:32 52.66041 6.10064 35897 ft 440 kts 221°
2026-05-05 19:33 52.61527 6.03283 35903 ft 439 kts 221°
2026-05-05 19:33 52.56989 5.96494 35906 ft 443 kts 221°
2026-05-05 19:34 52.52429 5.89650 35909 ft 444 kts 221°
2026-05-05 19:35 52.45594 5.79398 35904 ft 444 kts 221°
2026-05-05 19:35 52.41026 5.72569 35907 ft 444 kts 221°
2026-05-05 19:36 52.36456 5.65758 35902 ft 445 kts 221°
2026-05-05 19:36 52.31874 5.58951 35908 ft 445 kts 221°
2026-05-05 19:37 52.27289 5.52158 35907 ft 445 kts 221°
2026-05-05 19:37 52.22694 5.45371 35903 ft 446 kts 220°
2026-05-05 19:38 52.18088 5.38588 35903 ft 448 kts 221°
2026-05-05 19:38 52.13449 5.31776 35890 ft 450 kts 220°
2026-05-05 19:39 52.08797 5.24963 35894 ft 450 kts 220°
2026-05-05 19:39 52.04139 5.18164 35895 ft 450 kts 220°
2026-05-05 19:40 51.99456 5.11406 35897 ft 450 kts 220°
2026-05-05 19:40 51.94790 5.04746 35890 ft 450 kts 218°
2026-05-05 19:41 51.89822 4.98759 35890 ft 450 kts 213°
2026-05-05 19:41 51.84650 4.93043 35880 ft 451 kts 213°
2026-05-05 19:42 51.79469 4.87317 35884 ft 451 kts 213°
2026-05-05 19:42 51.74303 4.81567 35885 ft 452 kts 213°
2026-05-05 19:43 51.69126 4.75801 35882 ft 453 kts 213°
2026-05-05 19:43 51.63940 4.70038 35882 ft 453 kts 213°
2026-05-05 19:44 51.58745 4.64283 35884 ft 453 kts 213°
2026-05-05 19:44 51.53545 4.58540 35007 ft 452 kts 213°
2026-05-05 19:44 51.50966 4.55695 34226 ft 448 kts 212°
2026-05-05 19:45 51.48403 4.52873 33514 ft 447 kts 212°
2026-05-05 19:45 51.45826 4.50042 32878 ft 451 kts 212°
2026-05-05 19:45 51.43226 4.47192 32306 ft 456 kts 212°
2026-05-05 19:45 51.40599 4.44316 31743 ft 458 kts 212°
2026-05-05 19:46 51.37953 4.41421 31161 ft 461 kts 212°
2026-05-05 19:46 51.35299 4.38521 30575 ft 464 kts 212°
2026-05-05 19:46 51.32625 4.35602 29945 ft 466 kts 212°
2026-05-05 19:46 51.29936 4.32672 29224 ft 469 kts 212°
2026-05-05 19:47 51.27235 4.29734 28545 ft 471 kts 213°
2026-05-05 19:47 51.24580 4.26721 27902 ft 473 kts 216°
2026-05-05 19:47 51.22173 4.23244 27247 ft 473 kts 226°
2026-05-05 19:47 51.20183 4.19007 26577 ft 471 kts 238°
2026-05-05 19:48 51.18837 4.14272 25926 ft 468 kts 251°
2026-05-05 19:48 51.18189 4.09214 25294 ft 466 kts 264°
2026-05-05 19:48 51.18232 4.04089 24666 ft 463 kts 275°
2026-05-05 19:48 51.18770 3.99043 24032 ft 459 kts 281°
2026-05-05 19:49 51.19492 3.94192 23400 ft 454 kts 283°
2026-05-05 19:49 51.20013 3.90916 22897 ft 450 kts 283°
2026-05-05 19:49 51.21004 3.84541 22030 ft 443 kts 282°
2026-05-05 19:49 51.21702 3.79784 21414 ft 438 kts 282°
2026-05-05 19:50 51.22363 3.75074 20803 ft 433 kts 282°
2026-05-05 19:50 51.22998 3.70402 20199 ft 429 kts 280°
2026-05-05 19:50 51.23774 3.65815 19591 ft 427 kts 290°
2026-05-05 19:50 51.25000 3.61529 18958 ft 423 kts 297°
2026-05-05 19:51 51.26446 3.57476 18324 ft 418 kts 300°
2026-05-05 19:51 51.27859 3.53454 17639 ft 414 kts 294°
2026-05-05 19:51 51.28728 3.49113 16963 ft 411 kts 278°
2026-05-05 19:51 51.28743 3.44597 16325 ft 405 kts 262°
2026-05-05 19:52 51.28212 3.40179 15723 ft 404 kts 255°
2026-05-05 19:52 51.27501 3.35880 15220 ft 398 kts 254°
2026-05-05 19:52 51.26764 3.31628 14931 ft 396 kts 255°
2026-05-05 19:52 51.26066 3.27464 14813 ft 378 kts 255°
2026-05-05 19:53 51.25429 3.23493 14694 ft 361 kts 256°
2026-05-05 19:53 51.24838 3.19686 14559 ft 345 kts 256°
2026-05-05 19:53 51.24285 3.16045 14423 ft 331 kts 257°
2026-05-05 19:53 51.23759 3.12554 14286 ft 318 kts 257°
2026-05-05 19:54 51.23250 3.09168 13993 ft 311 kts 256°
2026-05-05 19:54 51.22515 3.05934 13460 ft 310 kts 239°
2026-05-05 19:54 51.21084 3.03455 12792 ft 304 kts 210°
2026-05-05 19:54 51.19124 3.02442 12195 ft 294 kts 180°
2026-05-05 19:55 51.17759 3.02497 11828 ft 289 kts 175°
2026-05-05 19:55 51.15767 3.02330 11267 ft 287 kts 193°
2026-05-05 19:55 51.14037 3.00877 10698 ft 281 kts 225°
2026-05-05 19:55 51.13011 2.98304 10165 ft 274 kts 251°
2026-05-05 19:56 51.12474 2.95365 9637 ft 280 kts 258°
2026-05-05 19:56 51.12038 2.92317 9044 ft 285 kts 259°
2026-05-05 19:56 51.11617 2.89274 8493 ft 283 kts 259°
2026-05-05 19:56 51.11192 2.86246 7960 ft 277 kts 259°
2026-05-05 19:57 51.10769 2.83297 7467 ft 269 kts 259°
2026-05-05 19:57 51.10352 2.80438 6972 ft 263 kts 261°
2026-05-05 19:57 51.09938 2.77604 6514 ft 264 kts 261°
2026-05-05 19:57 51.09524 2.74786 6052 ft 259 kts 261°
2026-05-05 19:58 51.09113 2.72002 5574 ft 259 kts 260°
2026-05-05 19:58 51.08700 2.69217 5153 ft 258 kts 260°
2026-05-05 19:58 51.08287 2.66447 4722 ft 257 kts 261°
2026-05-05 19:58 51.08111 2.63654 4278 ft 251 kts 281°
2026-05-05 19:59 51.08671 2.61127 3912 ft 238 kts 311°
2026-05-05 19:59 51.09857 2.59536 3564 ft 214 kts 341°
2026-05-05 19:59 51.11190 2.58835 3261 ft 192 kts 351°
2026-05-05 19:59 51.12437 2.58366 3020 ft 175 kts 357°
2026-05-05 20:00 51.13617 2.58379 3015 ft 164 kts 15°
2026-05-05 20:00 51.14605 2.58972 2937 ft 145 kts 33°
2026-05-05 20:00 51.15362 2.60021 2929 ft 145 kts 50°
2026-05-05 20:00 51.15844 2.61431 2890 ft 147 kts 67°
2026-05-05 20:01 51.16153 2.62997 2939 ft 149 kts 67°
2026-05-05 20:01 51.16470 2.64578 2785 ft 150 kts 68°
2026-05-05 20:01 51.16747 2.66177 2580 ft 150 kts 70°
2026-05-05 20:01 51.16988 2.67771 2356 ft 146 kts 71°
2026-05-05 20:02 51.17224 2.69319 2173 ft 141 kts 70°
2026-05-05 20:02 51.17451 2.70806 1956 ft 138 kts 70°
2026-05-05 20:02 51.17676 2.72279 1780 ft 139 kts 70°
2026-05-05 20:02 51.17904 2.73772 1608 ft 139 kts 70°
2026-05-05 20:03 51.18131 2.75264 1402 ft 139 kts 70°
2026-05-05 20:03 51.18358 2.76760 1196 ft 139 kts 70°
2026-05-05 20:03 51.18587 2.78264 1022 ft 140 kts 71°
2026-05-05 20:03 51.18818 2.79789 830 ft 142 kts 71°
2026-05-05 20:04 51.19033 2.81318 652 ft 141 kts 70°
2026-05-05 20:04 51.19291 2.82832 413 ft 143 kts 72°
2026-05-05 20:04 51.19532 2.84393 215 ft 144 kts 74°
2026-05-05 20:04 51.19760 2.85939 34 ft 139 kts 76°
2026-05-05 20:05 51.19922 2.87003 31 ft 60 kts 77°
2026-05-05 20:05 51.20000 2.87532 29 ft 45 kts 76°
2026-05-05 20:05 51.20068 2.87976 28 ft 38 kts 76°
2026-05-05 20:05 51.20121 2.88294 27 ft 13 kts 53°
2026-05-05 20:06 51.20185 2.88313 29 ft 7 kts 345°
2026-05-05 20:06 51.20219 2.88277 30 ft 5 kts 316°
2026-05-05 20:06 51.20241 2.88231 29 ft 7 kts 301°
2026-05-05 20:06 51.20253 2.88134 30 ft 11 kts 264°
2026-05-05 20:07 51.20232 2.87986 30 ft 16 kts 256°
2026-05-05 20:07 51.20204 2.87810 30 ft 16 kts 256°
2026-05-05 20:07 51.20183 2.87664 28 ft 6 kts 256°
2026-05-05 20:07 51.20186 2.87617 30 ft 3 kts 295°
2026-05-05 20:08 51.20200 2.87594 30 ft 3 kts 322°
2026-05-05 20:08 51.20232 2.87584 30 ft 7 kts 349°
2026-05-05 20:08 51.20290 2.87556 28 ft 10 kts 330°
2026-05-05 20:08 51.20338 2.87486 30 ft 8 kts 334°
2026-05-05 20:09 51.20384 2.87463 30 ft 4 kts 343°
2026-05-05 20:09 51.20397 2.87457 30 ft 0 kts 343°